Lexington Weather

Lexington, Massachusetts, USA

34°F
4/16/2021 9:20am 
  • Lexington Conditions: Snow, Mist, Overcast
  • Temperature: 34.2°F / 1.2°CColder 3.9°F than last hour.
  • Dew Point: 32.9°FDecreased 4.0°Fsince last hour.
  • Relative Humidity: 95
  • Wind: Wind from N N Calm, 10-min avg: 1 mph, gust: 2 mph
  • Barometer: 29.48 inFalling 0.04  inHg/hr Falling Slowly
  • Visibility: ½ mile
  • Snow Today: 0.3 in
  •   

Regional Weather Roundup
for Boston / Norton, MA

        
000
ASUS41 KBOX 142304
RWRBOX

REGIONAL WEATHER ROUNDUP
NATIONAL WEATHER SERVICE BOSTON/NORTON MA
700 PM EDT WED APR 14 2021

NOTE:  "FAIR" INDICATES FEW OR NO CLOUDS BELOW 12,000 FEET WITH NO 
SIGNIFICANT WEATHER AND/OR OBSTRUCTIONS TO VISIBILITY.

MAZALL-150000-
EASTERN MASSACHUSETTS
  
CITY           SKY/WX    TMP DP  RH WIND       PRES   REMARKS
BOSTON         PTCLDY    48  38  68 E14       29.96F                  
BEVERLY        NOT AVBL                                               
LAWRENCE       PTCLDY    51  36  56 SE3       29.96F                  
BEDFORD        CLEAR     50  35  56 SE13      29.93F                  
BLUE HILL        N/A     50  37  61 SE9       29.93S                  
NORWOOD        CLEAR     55  37  50 SE10      29.94F                  
MARSHFIELD     CLEAR     46  39  76 SE7       29.97F                  
PLYMOUTH       CLEAR     48  36  63 SE8       29.96F                  
TAUNTON          N/A    N/A N/A N/A MISG      29.95F                  
NEW BEDFORD    CLEAR     50  37  61 S8        29.96F                  
$$

MAZALL-150000-
CAPE COD AND THE ISLANDS
  
CITY           SKY/WX    TMP DP  RH WIND       PRES   REMARKS
FALMOUTH       NOT AVBL                                               
HYANNIS        CLEAR     47  39  74 S6        29.97F                  
CHATHAM        CLEAR     46  33  60 CALM      29.99F                  
PROVINCETOWN   CLEAR     45  35  68 S5        29.98F                  
NANTUCKET      CLEAR     44  36  73 SE8       29.98F                  
MARTHAS VNYRD  CLEAR     47  40  76 S7        29.97F                  
$$
 
MAZALL-150000-
CENTRAL AND WESTERN MASSACHUSETTS
  
CITY           SKY/WX    TMP DP  RH WIND       PRES   REMARKS
WORCESTER      CLEAR     57  42  57 SE10      29.92S                  
FITCHBURG      CLOUDY    56  39  53 SE10      29.92S                  
ORANGE         PTCLDY    63  43  48 S8G24     29.88R                  
SPRINGFIELD    MOCLDY    62  44  52 SE12      29.86S                  
WESTFIELD      CLOUDY    63  43  48 S9        29.86S                  
NORTH ADAMS    CLOUDY    62  44  51 CALM      29.84F                  
PITTSFIELD     CLOUDY    62  39  42 CALM      29.84F                  
$$
 
RIZALL-150000-
RHODE ISLAND
  
CITY           SKY/WX    TMP DP  RH WIND       PRES   REMARKS
PROVIDENCE     MOCLDY    50  37  61 S12       29.96F                  
NEWPORT        CLOUDY    46  39  76 SE8       29.97S                  
BLOCK ISLAND   PTCLDY    45  40  82 SE9       29.97F                  
SMITHFIELD     PTCLDY    50  40  68 S5        29.95F                  
WESTERLY       PTCLDY    46  40  79 E8        29.96F                  
$$
 
CTZALL-150000-
CONNECTICUT
  
CITY           SKY/WX    TMP DP  RH WIND       PRES   REMARKS
BRADLEY INTL   MOCLDY    63  42  46 S14       29.88S                  
HARTFORD       MOCLDY    59  44  57 S9        29.90R                  
BRIDGEPORT     CLOUDY    53  46  77 NE12      29.90S                  
DANBURY        CLOUDY    67  43  41 SW9G18    29.89S                  
GROTON         CLOUDY    48  43  82 E10       29.95F                  
NEW HAVEN      PTCLDY    53  46  77 E13       29.91S                  
CHESTER        FAIR      52  45  76 SE8       29.93S                  
MERIDEN        CLEAR     58  43  57 SE9G20    29.90S                  
WILLIMANTIC    CLEAR     53  42  66 VRB5      29.94R                  
OXFORD         MOCLDY    57  47  69 S10       29.90S                  
$$

MEZ002-015-021-024-NHZ003-005-008-011-012-014-VTZ005-008-150000-
NORTHERN NEW ENGLAND
  
CITY           SKY/WX    TMP DP  RH WIND       PRES   REMARKS
PORTLAND ME    CLEAR     44  39  82 S7        29.96S                  
BANGOR ME      CLEAR     58  24  27 NE5       29.92F                  
CONCORD NH     CLEAR     56  39  53 SE8       29.91R                  
MANCHESTER NH  PTCLDY    58  39  49 SE13      29.91R                  
NASHUA NH      CLOUDY    56  39  53 SE8       29.93S                  
PORTSMOUTH NH  PTCLDY    45  37  73 SE12      29.97S                  
JAFFREY NH     MOCLDY    58  41  53 VRB6      29.90R                  
KEENE NH       CLOUDY    62  43  49 SE12      29.87S                  
BURLINGTON VT  MOCLDY    64  35  34 N6        29.85F                  
MT. WASHINGTON MOCLDY    36  32  87 W14         N/A  WCI  27          
$$

NYZ052-076-150000-
EASTERN NEW YORK
  
CITY           SKY/WX    TMP DP  RH WIND       PRES   REMARKS
ALBANY         MOCLDY    63  39  41 S3        29.84F                  
NEW YORK CITY  CLOUDY    65  47  52 SW13      29.89F                  
$$
 
ANZALL-150000-
MARINE OBSERVATIONS
  
STATION/POSITION TIME  TEMP    WIND        PRES    VSBY  WAVE
                       AIR SEA DIR/SP/G                  HT/PER
                 (UTC) (F)     (DEG/KT/KT) (MB)    (MI)  (FT/S)
BOSTON BUOY      2240   44 45  150/ 12/ 14 1015.4F
BUZZARDS BAY     2200          150/  8/  8 1016.4S
NANTUCKET SOUND  2240      47                N/A
MASS BAY-STELLWA 2204   44     150/ 10/ 12 1014.2F  1 7/8  5/ 6
ISLE OF SHOALS   2200   43     150/ 14/ 15 1014.3R
S OF BLOCK IS    2226      46                N/A           3/ 7
$$

......................KEY.........................
  SKY/WX - SKY CONDITION/PRESENT WEATHER
  TMP    - TEMPERATURE IN FAHRENHEIT
  DWPT   - DEWPOINT IN FAHRENHEIT
  RH     - RELATIVE HUMIDITY IN PERCENT
  WIND   - DIRECTION AND SPEED IN MPH
  PRES   - MEAN SEA LEVEL PRESSURE IN INCHES OF HG
  WCI    - WIND CHILL INDEX
  VSB    - VISIBILITY IN MILES
  HX     - HEAT INDEX
  TC     - TEMPERATURE IN CELSIUS
  VRB    - VARIABLE WIND DIRECTION
  N/A    - NOT AVAILABLE
  
      

Other recent Regional Weather Roundups

Fri Apr 16, 9:04am

Fri Apr 16, 8:04am

Fri Apr 16, 7:04am

Fri Apr 16, 6:04am

Fri Apr 16, 5:04am

Fri Apr 16, 4:04am

Fri Apr 16, 3:04am

Fri Apr 16, 2:04am

Fri Apr 16, 1:04am

Fri Apr 16, 12:04am

Thu Apr 15, 11:05pm

Thu Apr 15, 10:04pm

Thu Apr 15, 9:04pm

Thu Apr 15, 8:04pm

Thu Apr 15, 7:05pm

Thu Apr 15, 6:04pm

Thu Apr 15, 5:05pm

Thu Apr 15, 4:04pm

Thu Apr 15, 3:05pm

Thu Apr 15, 2:04pm

Thu Apr 15, 1:05pm

Thu Apr 15, 12:04pm

Thu Apr 15, 11:04am

Thu Apr 15, 10:05am

Thu Apr 15, 9:04am

Thu Apr 15, 8:04am

Thu Apr 15, 7:04am

Thu Apr 15, 6:04am

Thu Apr 15, 5:04am

Thu Apr 15, 4:04am

Thu Apr 15, 3:04am

Thu Apr 15, 2:04am

Thu Apr 15, 1:04am

Thu Apr 15, 12:04am

Wed Apr 14, 11:04pm

Wed Apr 14, 10:04pm

Wed Apr 14, 9:04pm

Wed Apr 14, 8:04pm

Wed Apr 14, 6:04pm

Wed Apr 14, 5:05pm

Wed Apr 14, 4:04pm

Wed Apr 14, 3:05pm

Wed Apr 14, 2:04pm

Wed Apr 14, 1:05pm

Wed Apr 14, 12:04pm

Wed Apr 14, 11:04am

Wed Apr 14, 10:04am

Wed Apr 14, 9:04am

Wed Apr 14, 8:04am

Wed Apr 14, 7:04am

Wed Apr 14, 6:04am

Wed Apr 14, 5:04am

Wed Apr 14, 4:04am

Wed Apr 14, 3:04am

Wed Apr 14, 2:04am

Wed Apr 14, 1:04am

Wed Apr 14, 12:04am

Tue Apr 13, 11:04pm

Tue Apr 13, 10:05pm

Tue Apr 13, 9:05pm

Tue Apr 13, 8:05pm

Tue Apr 13, 7:04pm

Tue Apr 13, 6:04pm

Tue Apr 13, 5:05pm

Tue Apr 13, 4:04pm

Tue Apr 13, 3:04pm

Tue Apr 13, 2:05pm

Tue Apr 13, 1:04pm

Tue Apr 13, 12:05pm

Tue Apr 13, 11:05am

Tue Apr 13, 10:04am

Tue Apr 13, 9:04am

Tue Apr 13, 8:04am

Tue Apr 13, 7:04am

Tue Apr 13, 6:04am

Tue Apr 13, 5:04am

Tue Apr 13, 4:04am

Tue Apr 13, 3:04am

Tue Apr 13, 2:04am

Tue Apr 13, 1:04am

Tue Apr 13, 12:05am

Mon Apr 12, 11:04pm

Mon Apr 12, 10:04pm

Mon Apr 12, 9:04pm

Mon Apr 12, 8:04pm

Mon Apr 12, 7:05pm

Mon Apr 12, 6:04pm

Mon Apr 12, 5:04pm

Mon Apr 12, 4:04pm

Mon Apr 12, 3:05pm

Mon Apr 12, 2:04pm

Mon Apr 12, 1:05pm

Mon Apr 12, 12:04pm

Mon Apr 12, 11:04am

Mon Apr 12, 10:04am

Mon Apr 12, 9:04am

Mon Apr 12, 8:04am

Mon Apr 12, 7:04am

Mon Apr 12, 6:04am

Mon Apr 12, 5:04am

Mon Apr 12, 4:04am

Mon Apr 12, 3:04am

Mon Apr 12, 2:04am

Mon Apr 12, 1:05am

Mon Apr 12, 12:04am

Sun Apr 11, 11:04pm

Sun Apr 11, 10:04pm

Sun Apr 11, 9:04pm

Sun Apr 11, 8:04pm

Sun Apr 11, 7:04pm

Sun Apr 11, 6:05pm

Sun Apr 11, 5:05pm

Sun Apr 11, 4:04pm

Sun Apr 11, 3:05pm

Sun Apr 11, 2:05pm

Sun Apr 11, 1:05pm

Sun Apr 11, 12:04pm

Sun Apr 11, 11:05am

Sun Apr 11, 10:05am

Sun Apr 11, 9:04am

Sun Apr 11, 8:04am

Sun Apr 11, 7:04am

Sun Apr 11, 6:04am

Sun Apr 11, 5:04am

Sun Apr 11, 4:04am

Sun Apr 11, 3:04am

Sun Apr 11, 2:04am

Sun Apr 11, 1:05am

Sun Apr 11, 12:04am

Sat Apr 10, 11:05pm

Sat Apr 10, 10:04pm

Sat Apr 10, 9:04pm

Sat Apr 10, 8:04pm

Sat Apr 10, 7:05pm

Sat Apr 10, 6:04pm

Sat Apr 10, 5:04pm

Sat Apr 10, 4:04pm

Sat Apr 10, 3:04pm

Sat Apr 10, 2:05pm

Sat Apr 10, 1:04pm

Sat Apr 10, 12:04pm

Sat Apr 10, 11:04am

Sat Apr 10, 10:04am

Sat Apr 10, 9:04am

Sat Apr 10, 8:04am

Sat Apr 10, 7:04am

Sat Apr 10, 6:04am

Sat Apr 10, 5:04am

Sat Apr 10, 4:04am

Sat Apr 10, 3:04am

Sat Apr 10, 2:04am

Sat Apr 10, 1:05am

Sat Apr 10, 12:04am

Fri Apr 9, 11:04pm

Fri Apr 9, 10:05pm

Fri Apr 9, 9:04pm

Fri Apr 9, 8:05pm

Fri Apr 9, 7:05pm

Fri Apr 9, 6:04pm

Fri Apr 9, 5:04pm

Fri Apr 9, 4:05pm

Fri Apr 9, 3:05pm

Fri Apr 9, 2:04pm

Fri Apr 9, 1:04pm

Fri Apr 9, 12:04pm

Fri Apr 9, 11:05am

Fri Apr 9, 10:04am

Fri Apr 9, 9:04am

Meta data:

ID: 69242545-4f12-4de7-acd5-12b65749e711
Link: https://api.weather.gov/products/69242545-4f12-4de7-acd5-12b65749e711